Regional Weather Roundup
Issued by NWS Charleston, SC

Home | Current Version | Previous Version | Text Only | Print | Product List | Glossary On
Versions: 1 2 3 4 5 6 7 8 9 10 11 12 13 14 15 16 17 18 19 20 21 22 23 24 25 26 27 28 29 30 31 32 33 34 35 36 37 38 39 40 41 42 43 44 45 46 47 48 49 50
000
ASUS42 KCHS 261327
RWRCHS

REGIONAL WEATHER ROUNDUP
NATIONAL WEATHER SERVICE CHARLESTON SC
900 AM EDT MON JUN 26 2017

NOTE: "FAIR" INDICATES FEW OR NO CLOUDS BELOW 12,000 FEET WITH NO
SIGNIFICANT WEATHER AND/OR OBSTRUCTIONS TO VISIBILITY.

NOT ALL STATIONS ARE QUALITY CONTROLLED. USE DATA WITH CAUTION...
ESPECIALLY DEWPOINT OBSERVATIONS.

SCZ027-030-031-034>040-042>050-261400-
...SOUTHEAST SOUTH CAROLINA...

CITY           SKY/WX    TMP DP  RH WIND       PRES   REMARKS
N CHARLESTON   CLOUDY    76  70  82 NE9       30.08R
WATERFRONT PRK   N/A     77  74  91 N9        30.05R
JOHNS ISLAND   CLOUDY    77  75  94 N7        30.08R
PINOPOLIS        N/A     75  70  83 NE10      30.02R
MONCKS CORNER  FAIR      75  68  78 NE7       30.10R
SUMMERVILLE    FAIR      77  70  78 N5        30.10S
BEAUFORT MCAS  MOSUNNY   79  74  84 N13       30.08S
BEAUFORT ARPT  FAIR      77  72  83 N10       30.08R HAZE
HILTON HEAD IS PTSUNNY   77  75  94 N8        30.08R
WALTERBORO     SUNNY     77  70  78 NE8       30.10S
ALLENDALE      FAIR      75  66  73 VRB3      30.10R

...SOUTHERN MIDLANDS AND PEE DEE...

CITY           SKY/WX    TMP DP  RH WIND       PRES   REMARKS
GEORGETOWN     CLOUDY    73  68  83 NE7       30.10R
KINGSTREE      FAIR      77  57  50 NE5       30.11R
ORANGEBURG     SUNNY     76  60  57 NE14G21   30.11R
BARNWELL       FAIR      77  64  65 NE10      30.12R
AIKEN          FAIR      75  61  60 NE8       30.17R
MANNING        FAIR      77  63  61 NE14G23   30.11R
COLUMBIA       MOSUNNY   78  59  51 N8        30.12R
SUMTER         SUNNY     75  59  57 NE12      30.10R
FLORENCE       SUNNY     77  58  51 NE9       30.12R
MYRTLE BEACH   CLOUDY    75  64  69 MISG      30.10R
N MYRTLE BEACH CLOUDY    75  63  66 NE10      30.09R

$$

GAZ063-065-086>088-099>101-113>116-118-119-134>141-150-261400-
...SOUTHEAST GEORGIA...

CITY           SKY/WX    TMP DP  RH WIND       PRES   REMARKS
SAVANNAH ARPT  CLOUDY    77  72  84 N8        30.09R
HUNTER AAF     CLOUDY    77  75  94 N7        30.06R
FORT STEWART   CLOUDY    76  74  92 NW6       30.07R
STATESBORO     CLOUDY    79  76  92 NE7       30.10R
SYLVANIA       CLOUDY    77  73  87 E6        30.11S
CLAXTON        CLOUDY    76  73  91 CALM      30.10R

...CSRA...CENTRAL AND FAR SOUTHEAST GEORGIA...

CITY           SKY/WX    TMP DP  RH WIND       PRES   REMARKS
THOMSON        CLOUDY    72  61  68 E7        30.20R
AUGUSTA-BUSH   MOSUNNY   78  63  59 NE7       30.11R
AUGUSTA-DANIEL CLOUDY    77  58  51 NE9       30.13R
SWAINSBORO     PTSUNNY   77  70  78 NE5       30.13R
VIDALIA        CLOUDY    77  75  94 NE6       30.10S
EASTMAN        FAIR      78  62  59 E7        30.14R
HAZLEHURST     CLOUDY    73  73 100 NW3       30.10S FOG
ALMA           SUNNY     77  71  82 NW6       30.09R
WAYCROSS       CLOUDY    82  79  89 CALM      30.09R HX  92
JESUP          CLOUDY    77  72  83 CALM      30.09R
BAXLEY         PTSUNNY   77  77 100 N5        30.09S
BRUNSWICK      PTSUNNY   79  77  94 NW3       30.09R
SAINT SIMONS   PTSUNNY   80  75  84 CALM      30.07R

$$

SCZ027-028-034-036>038-045-046-048>050-GAZ119-141-261400-
...LAKE AND SUPPLEMENTAL COASTAL OBSERVATIONS...

STATION/POSITION TIME  TEMP    WIND        PRES    WAVE   SWELL
                       AIR SEA DIR/SP/G            HT/PER HT/PER/DIR
                 (UTC) (F)     (DEG/KT/KT) (MB)    (FT/S) (FT/S/D)
WINYAH BAY       1245   74      30/  6     1019.0R
LAKE MURRAY      1250   72      30/  2/  4 1019.3R
ACE BASIN NERRS  1230   74        CALM     1019.0R
FORT PULASKI     1300   76 84  360/  5/  7 1018.9
SAPELO ISLAND    1300   78        CALM     1018.0

$$

ANZ835-935-AMZ111-154-330-350-352-354-370-450-454-472-261400-
...C-MAN AND BUOY OBSERVATIONS...

STATION/POSITION TIME  TEMP    WIND        PRES    WAVE   SWELL
                       AIR SEA DIR/SP/G            HT/PER HT/PER/DIR
                 (UTC) (F)     (DEG/KT/KT) (MB)    (FT/S) (FT/S/D)
BUOY 41004       1310   77 81   90/ 10/ 14 1017.5
BUOY 41008       1250   79 82  310/  8/  8 1017.5F   2/ 7   2/100/ 7
FOLLY BEACH CMAN 1300   76      20/ 10/ 12 1018.9R
CAPERS NEARSHORE 1308   81 83   30/ 14/ 21 1017.9R
FRIPP NEARSHORE  1308   78 83   20/ 10/ 14 1017.8R


STATION/POSITION TIME  TEMP    WIND        PRES    WAVE   SWELL
                       AIR SEA DIR/SP/G            HT/PER HT/PER/DIR
                 (UTC) (F)     (DEG/KT/KT) (MB)    (FT/S) (FT/S/D)
5E ST. MARYS GA  1300      80                N/A     2/ 8
FRYING PAN BUOY  1310   76 81   50/  6/  8 1018.4
BUOY 41025       1250   78 79   20/ 10/ 10 1017.9R   2/ 8   2/140/ 8
CAPE LOOKOUT NC  1300   76      10/  6/  7 1018.3R
BUOY 41002       1250   80 80  190/ 12/ 14 1018.8R   3/ 6   2/190/ 6
BUOY 41010       1310   83 83  200/ 12/ 14 1018.6
ST AUGUSTINE FL  1300   78 77   30/  5/  5 1018.7R


$$



USA.gov is the U.S. government's official web portal to all federal, state and local government web resources and services.